Wetbulb
59.45 59.32 59.40 59.51 59.64 59.79 60.03 60.05 60.23 60.40 60.46 60.46 60.69 61.01 61.48 61.45 61.41 64.07 58.19 66.68 68.27 74.20 74.18 71.10 70.69 69.55 70.84 68.33 70.47 69.19 61.07 58.27 59.26 60.24 64.03 67.72 66.33 69.87 69.80 67.77 68.35 69.53 68.96 70.80 72.33
59.27 59.44 59.35 59.24 59.65 59.87 59.91 59.93 60.14 60.02 59.93 60.04 60.36 60.82 61.55 61.61 62.93 58.35 69.65 75.71 73.50 74.03 67.40 67.28 64.68 66.11 66.84 65.45 67.81 64.92 60.84 60.77 64.57 65.14 65.13 66.99 67.38 67.94 67.69 67.70 67.46 68.53 70.10 71.62 72.02
59.35 59.24 59.02 59.17 59.35 59.55 59.72 59.80 59.85 59.82 59.73 59.86 60.34 61.19 61.49 62.76 59.40 60.46 70.87 73.67 74.95 74.16 65.21 64.51 65.82 66.21 64.28 65.53 64.96 64.59 61.05 63.57 66.66 67.49 68.09 67.10 66.79 68.18 66.16 64.49 68.34 67.49 68.11 70.06 71.02
59.38 59.24 59.09 58.99 59.13 59.18 59.28 59.46 59.37 59.31 59.39 59.69 60.33 61.50 61.70 63.56 54.54 62.16 70.53 75.05 74.95 69.53 63.13 64.26 65.93 64.51 63.53 62.42 64.66 62.60 65.51 66.06 68.17 68.88 67.54 65.96 67.35 65.80 66.46 66.49 69.88 70.91 70.26 70.85 70.75
59.08 58.81 58.81 58.75 58.63 58.64 58.99 59.11 58.71 58.77 59.02 59.78 60.64 61.66 63.50 54.85 55.59 62.44 70.75 73.43 66.73 63.77 62.53 64.39 65.02 64.69 62.22 63.32 64.19 63.28 65.20 68.07 69.12 68.76 67.82 67.55 65.55 65.08 66.18 69.36 71.37 71.07 70.82 70.99 71.40
58.67 58.74 58.62 58.46 58.52 58.67 58.63 58.42 58.01 58.22 58.94 59.79 60.80 61.51 58.74 51.44 57.34 62.24 60.06 63.93 65.49 63.69 64.28 65.27 65.69 65.81 63.56 63.03 63.43 65.86 66.64 67.59 68.42 68.34 67.56 65.40 65.38 65.37 66.95 70.11 70.01 70.19 70.51 71.36 71.72
58.11 58.20 57.98 57.84 58.07 58.31 58.02 57.64 57.26 57.79 58.75 59.92 61.00 62.24 54.78 53.92 58.25 59.81 60.20 60.28 64.12 65.16 63.84 66.45 67.56 65.43 64.43 62.38 65.19 66.04 64.11 66.41 67.33 67.86 66.31 67.95 63.86 63.46 67.82 69.43 68.98 69.46 70.38 70.81 71.57
57.63 57.67 57.59 57.55 57.68 57.53 56.95 56.65 57.05 58.44 59.64 60.26 61.24 60.81 53.37 56.23 58.69 58.82 60.72 60.95 61.57 64.41 64.59 66.94 67.26 65.69 63.93 64.65 64.28 62.25 62.82 59.60 65.96 67.07 67.24 65.91 61.36 65.97 68.44 68.10 67.80 68.85 69.46 70.12 71.20
57.26 57.08 57.06 57.14 56.81 56.46 55.76 56.19 58.17 59.90 60.06 60.86 61.94 57.58 52.20 61.31 57.27 59.27 60.12 60.24 61.74 62.52 64.21 65.28 66.19 64.25 63.93 61.05 60.03 60.85 57.66 57.93 60.11 66.34 65.82 65.21 61.78 66.47 68.69 67.71 66.96 67.88 68.63 69.54 70.46
56.73 56.58 56.44 56.42 56.07 55.44 54.92 56.58 57.46 60.02 62.21 62.09 59.71 54.28 54.06 53.91 56.89 58.27 60.51 59.77 60.44 62.24 62.55 63.87 63.87 61.88 61.98 59.62 55.25 56.30 56.51 57.62 57.28 60.74 64.43 63.87 63.73 66.47 68.04 67.80 67.28 67.60 68.22 69.20 69.65
56.58 56.32 56.01 55.89 55.37 54.40 57.23 59.03 58.46 56.55 58.54 55.77 53.98 51.33 52.53 57.03 58.89 57.62 59.39 59.11 60.34 61.72 59.37 62.17 59.57 58.13 59.86 60.15 59.71 58.99 57.52 56.57 58.40 59.77 60.97 62.35 63.41 65.31 67.66 67.80 67.55 67.60 67.51 68.42 69.55
56.17 55.87 55.83 55.32 54.60 54.27 58.26 58.70 56.79 56.65 53.69 57.52 57.24 57.12 57.86 57.68 53.34 56.08 59.40 57.42 57.87 56.53 60.19 59.40 57.27 61.25 61.05 60.25 59.12 58.27 56.95 57.29 58.81 59.99 61.02 60.88 61.66 65.08 67.19 67.58 68.18 68.27 68.25 67.80 69.36
55.85 55.77 55.27 54.48 53.93 59.46 58.72 57.59 59.93 59.13 54.51 54.54 55.34 54.40 55.16 56.68 53.22 54.47 57.73 57.62 55.89 55.84 58.17 57.89 59.26 61.27 60.10 58.88 57.93 58.41 57.06 56.23 56.06 58.75 61.90 61.13 60.73 63.46 66.34 68.22 68.87 69.23 69.58 69.32 69.74
55.45 55.32 54.48 53.10 56.62 59.14 59.09 59.32 60.80 59.28 51.08 50.50 52.48 54.40 55.15 55.61 52.36 56.74 57.90 57.09 55.09 54.30 56.97 58.35 60.22 59.14 59.03 58.36 59.14 56.37 59.09 56.74 56.67 56.91 54.46 59.97 53.02 61.02 64.67 65.92 67.46 68.34 68.98 69.06 70.37
54.96 54.46 53.44 52.42 56.94 58.65 59.02 60.88 60.65 57.62 43.17 51.19 52.50 57.61 55.91 53.42 53.06 53.96 57.91 55.82 53.77 53.31 55.01 54.78 56.94 57.25 57.44 58.44 59.48 57.53 58.17 57.02 57.02 57.05 57.22 57.72 54.77 58.81 62.79 62.94 65.93 67.99 68.86 69.52 70.97
54.11 53.54 52.70 56.68 58.28 59.40 60.26 60.92 58.47 48.91 41.53 49.73 52.58 52.24 51.90 52.64 52.12 54.22 54.29 56.53 56.31 53.99 55.08 54.69 58.06 58.83 58.79 60.35 59.52 59.52 56.46 57.08 57.90 57.41 52.62 55.89 55.04 55.13 58.61 63.79 64.55 67.53 68.97 69.91 70.66
52.72 51.79 52.13 56.75 59.27 60.01 60.51 58.44 48.89 44.04 49.62 49.16 49.61 51.38 51.35 49.98 50.71 52.52 51.83 51.53 50.47 49.49 50.02 52.79 54.47 56.66 57.28 56.62 58.11 56.79 55.43 51.62 51.35 51.63 50.79 56.46 54.67 55.92 61.89 63.67 64.47 65.29 68.72 70.05 71.33
51.04 50.60 54.54 57.27 60.80 59.90 59.53 53.15 44.23 46.00 47.54 52.52 49.88 50.73 49.60 50.74 50.27 50.91 51.26 50.16 52.76 51.98 50.51 49.36 47.54 54.50 57.16 55.46 53.98 54.39 54.89 51.86 47.90 49.39 51.31 57.00 52.38 57.75 64.56 66.48 66.99 67.74 67.58 70.12 71.06
50.31 60.11 59.11 60.36 59.91 59.20 55.79 47.90 48.40 47.29 50.55 49.31 50.26 49.05 48.91 49.50 48.92 50.10 50.74 50.48 52.02 52.67 49.24 49.09 49.47 54.75 55.59 57.52 56.87 54.64 53.17 57.36 53.68 54.73 51.94 54.21 56.73 60.16 64.64 65.07 66.65 67.28 68.24 69.23 70.40
55.06 58.13 59.92 60.49 60.32 58.39 52.48 46.81 49.58 49.99 51.01 50.17 47.09 50.35 48.40 49.43 48.13 48.45 49.51 51.71 50.99 53.27 54.65 52.43 49.35 53.25 54.53 56.14 56.54 55.61 57.53 52.39 54.05 49.18 48.46 52.42 53.82 54.99 62.38 64.18 65.98 66.76 68.05 69.14 70.37
56.06 55.81 58.14 60.47 59.37 55.57 48.27 49.90 50.81 52.39 51.87 49.15 48.09 48.42 49.47 49.30 50.51 48.52 48.96 50.52 52.05 52.25 54.19 53.30 51.17 51.66 53.79 52.92 52.07 53.49 53.60 55.13 55.97 54.66 50.99 49.68 53.09 60.61 62.57 65.12 65.57 67.34 68.22 69.01 69.53
56.28 54.42 59.55 60.56 53.03 54.39 50.02 50.73 48.54 51.64 52.91 51.60 51.79 50.37 49.46 49.31 50.51 50.71 50.20 52.34 52.52 53.34 50.47 53.46 51.76 48.80 50.54 54.60 55.34 55.46 54.30 55.59 52.20 52.84 54.48 53.72 53.60 63.36 64.79 66.02 67.38 67.97 69.06 69.72 69.88
55.36 57.55 60.31 59.45 50.43 50.21 51.95 50.74 51.72 51.42 52.66 51.92 50.30 51.71 52.09 50.58 50.03 52.11 52.52 54.98 53.18 52.11 51.67 52.98 49.72 47.21 48.47 51.76 53.90 52.25 54.16 55.25 55.23 55.49 54.13 51.79 53.39 65.12 66.13 66.15 68.11 67.89 69.12 69.47 70.11
55.39 54.31 56.27 57.87 57.79 52.13 49.83 50.16 50.43 55.05 54.56 55.20 53.38 53.60 52.77 51.96 53.83 51.98 52.77 54.34 52.57 53.22 59.42 58.20 50.45 48.96 46.95 49.44 51.68 50.52 51.92 54.08 54.09 51.17 52.23 52.77 54.92 62.22 65.03 65.76 66.84 68.21 69.13 67.94 69.15
57.42 54.96 54.61 52.78 53.59 54.27 54.12 53.41 51.31 51.73 56.40 56.61 54.32 52.72 51.30 51.21 52.38 51.74 53.45 54.61 55.67 58.00 55.09 52.80 48.90 50.78 50.96 51.34 51.40 51.34 51.50 52.89 53.06 53.96 52.62 54.31 55.39 58.48 64.62 66.57 67.35 68.92 68.60 67.59 68.61
53.22 52.58 56.36 56.01 54.64 54.31 50.92 53.49 52.42 53.80 55.80 54.08 53.93 53.13 55.75 54.71 55.54 52.92 54.65 55.99 55.42 57.02 55.16 54.94 50.34 51.82 50.02 51.17 51.14 49.61 51.33 53.20 54.02 54.37 55.38 56.37 56.35 61.57 66.34 68.70 67.96 68.29 67.90 67.32 68.35
52.83 55.53 53.19 51.12 54.67 54.87 54.90 54.47 54.24 56.61 57.17 57.96 56.75 55.02 53.81 56.21 59.42 60.24 60.52 59.89 58.29 57.32 56.72 54.11 51.86 51.71 48.28 51.22 50.80 48.08 50.93 52.34 53.63 55.51 56.08 55.00 58.79 64.80 65.11 67.06 67.73 67.82 68.14 67.89 68.96
MSLP
1016.45 1016.11 1015.76 1015.33 1014.82 1014.37 1013.94 1013.47 1013.10 1012.55 1012.12 1011.70 1011.15 1010.75 1010.21 1009.69 1008.32 1007.61 1005.62 1005.73 1005.57 1005.63 1005.54 1004.92 1004.75 1004.15 1003.97 1002.87 1002.68 1002.16 1000.67 1001.02 1001.77 1002.45 1003.97 1005.09 1005.32 1006.23 1006.72 1007.11 1007.56 1007.98 1007.95 1009.15 1010.61
1016.54 1016.11 1015.77 1015.32 1014.69 1014.30 1013.85 1013.35 1012.90 1012.44 1011.98 1011.48 1010.96 1010.56 1010.09 1009.60 1007.74 1005.71 1005.63 1005.52 1005.55 1005.68 1004.76 1003.86 1002.83 1003.13 1002.20 1001.98 1001.83 1001.14 1000.83 1001.73 1002.39 1002.76 1003.70 1004.78 1005.24 1006.15 1006.65 1007.24 1007.81 1008.16 1008.88 1009.90 1010.76
1016.66 1016.19 1015.69 1015.24 1014.75 1014.21 1013.70 1013.24 1012.76 1012.34 1011.91 1011.54 1010.87 1010.21 1009.75 1009.35 1006.69 1004.55 1005.31 1005.40 1005.42 1005.39 1004.31 1003.51 1002.82 1002.28 1001.18 1001.33 1001.24 1001.39 1001.48 1002.20 1003.00 1003.36 1004.00 1004.74 1005.29 1005.85 1005.99 1006.27 1007.22 1007.97 1009.05 1010.03 1010.52
1016.66 1016.17 1015.67 1015.10 1014.63 1014.18 1013.55 1013.07 1012.60 1012.14 1011.75 1011.39 1010.70 1009.97 1009.36 1008.05 1005.31 1004.62 1005.15 1005.03 1005.06 1004.78 1004.09 1002.98 1002.06 1001.12 1000.76 1000.49 1001.11 1000.87 1002.13 1002.48 1003.45 1004.08 1004.41 1004.80 1005.43 1005.83 1006.30 1006.89 1007.11 1007.99 1009.02 1009.72 1010.33
1016.78 1016.25 1015.66 1015.06 1014.49 1013.93 1013.51 1012.89 1012.34 1012.01 1011.51 1011.06 1010.57 1009.84 1008.52 1006.49 1004.45 1004.61 1004.83 1005.03 1004.80 1004.53 1003.61 1002.57 1001.63 1001.14 1000.52 1000.68 1000.89 1000.93 1002.21 1002.96 1003.68 1004.09 1004.61 1005.14 1005.54 1006.09 1006.88 1007.45 1007.85 1008.41 1009.26 1009.73 1010.20
1016.73 1016.21 1015.64 1014.94 1014.30 1013.65 1013.03 1012.69 1012.06 1011.65 1011.28 1010.77 1010.42 1009.82 1008.00 1005.39 1004.59 1004.49 1004.50 1004.47 1003.93 1003.72 1002.91 1002.49 1001.70 1001.61 1001.04 1000.87 1000.81 1001.68 1002.15 1002.88 1003.52 1004.06 1004.59 1005.00 1005.66 1005.85 1007.39 1007.89 1008.44 1008.89 1009.20 1009.52 1009.73
1016.73 1016.12 1015.51 1014.83 1014.12 1013.39 1012.66 1012.17 1011.80 1011.17 1010.99 1010.57 1010.30 1009.44 1007.19 1004.68 1004.60 1004.42 1004.31 1003.67 1003.54 1003.23 1002.40 1002.37 1002.21 1001.60 1001.29 1000.87 1001.72 1001.67 1001.97 1002.77 1003.36 1003.86 1004.21 1004.61 1004.89 1005.55 1007.13 1007.80 1008.29 1008.79 1009.04 1009.19 1009.42
1016.75 1016.03 1015.34 1014.63 1013.91 1013.11 1012.36 1011.79 1011.25 1010.79 1010.53 1010.35 1010.14 1008.87 1005.54 1004.88 1004.78 1004.37 1003.86 1003.42 1003.47 1003.22 1002.98 1002.68 1002.53 1001.74 1001.25 1001.56 1001.47 1001.19 1001.50 1001.44 1002.84 1003.59 1004.07 1004.43 1004.03 1005.63 1006.60 1007.21 1007.72 1008.17 1008.53 1008.93 1009.20
1016.75 1016.08 1015.27 1014.42 1013.59 1012.83 1012.10 1011.37 1010.83 1010.51 1010.26 1010.20 1009.47 1007.83 1004.71 1005.04 1004.43 1004.01 1003.97 1002.97 1002.89 1002.92 1002.93 1003.00 1002.41 1001.34 1001.17 1000.52 1000.35 1000.75 1000.17 1001.19 1001.86 1002.85 1003.34 1004.01 1003.45 1005.15 1006.12 1006.33 1006.81 1007.38 1007.70 1008.18 1008.61
1016.66 1015.94 1015.23 1014.41 1013.55 1012.61 1011.71 1010.96 1010.75 1010.44 1010.07 1009.47 1008.74 1007.49 1004.94 1004.06 1004.24 1004.12 1003.82 1003.63 1002.55 1002.47 1002.63 1002.27 1001.47 1000.71 1000.38 999.94 999.22 1000.01 1000.14 1000.99 1001.18 1001.72 1002.61 1002.95 1003.37 1004.38 1005.46 1005.67 1006.01 1006.40 1006.83 1007.49 1007.68
1016.69 1015.89 1015.01 1014.22 1013.35 1012.55 1011.36 1009.82 1009.96 1009.23 1008.14 1006.66 1006.06 1005.50 1004.69 1004.52 1004.32 1003.64 1003.46 1003.12 1002.43 1001.98 1001.28 1001.41 1000.73 1000.06 999.67 1000.28 1000.39 1000.59 1000.64 1000.76 1000.94 1001.59 1001.82 1001.79 1002.07 1003.05 1004.48 1004.95 1005.22 1005.50 1005.93 1006.39 1006.78
1016.63 1015.86 1014.98 1014.02 1013.10 1012.08 1011.49 1009.21 1010.24 1010.41 1007.78 1005.99 1005.74 1005.41 1005.14 1005.01 1003.74 1003.09 1003.37 1002.53 1001.90 1001.02 1000.87 1001.13 1000.18 999.65 1000.21 1000.78 1000.68 1000.61 1000.57 1000.40 1000.66 1001.28 1001.33 1000.78 1001.01 1001.67 1002.92 1003.79 1004.18 1004.80 1005.22 1005.58 1006.09
1016.57 1015.80 1014.92 1013.88 1012.75 1011.54 1010.70 1010.21 1010.39 1010.19 1007.85 1005.15 1004.87 1004.51 1004.30 1004.63 1003.00 1002.11 1002.60 1001.78 1001.25 1000.75 1000.42 999.90 999.56 1000.08 1000.58 1000.62 1000.53 1000.33 1000.23 1000.48 1000.69 1000.55 1000.62 1000.42 999.70 1000.99 1001.97 1003.07 1003.58 1004.17 1004.73 1005.17 1005.76
1016.46 1015.77 1015.06 1013.90 1012.84 1011.63 1010.19 1010.57 1010.25 1010.01 1006.67 1004.39 1003.99 1003.79 1004.20 1003.77 1002.69 1002.22 1002.08 1001.57 1001.21 1000.34 1000.30 999.96 999.86 1000.34 1000.33 1000.14 1000.35 999.72 1000.27 1000.79 1000.66 1000.08 999.20 1000.07 998.68 999.45 1000.68 1001.83 1002.90 1003.58 1004.06 1004.59 1005.50
1016.29 1015.73 1015.24 1015.04 1013.13 1010.95 1010.49 1010.33 1010.04 1009.30 1005.04 1003.72 1003.41 1003.85 1003.39 1002.78 1002.01 1002.08 1002.19 1001.79 1000.62 1000.57 1000.68 999.76 1000.02 1000.31 999.94 999.78 1000.20 1000.07 1000.68 1000.91 1000.81 1000.18 999.67 999.29 999.16 998.66 1000.21 1000.99 1002.00 1002.92 1003.30 1003.99 1005.10
1015.97 1015.56 1015.15 1013.63 1012.68 1011.06 1010.72 1010.16 1009.63 1007.19 1003.44 1002.79 1002.81 1002.63 1002.58 1002.19 1001.53 1001.84 1001.95 1001.89 1000.77 1000.59 1000.77 999.86 1000.53 1000.03 999.60 999.69 999.92 1000.36 1000.73 1000.78 1000.53 1000.27 999.17 998.42 998.98 997.99 998.82 1000.67 1001.51 1002.03 1002.77 1003.48 1004.54
1015.37 1014.94 1015.00 1013.41 1010.91 1011.18 1010.70 1009.11 1007.02 1004.50 1003.50 1002.61 1002.02 1002.03 1001.54 1001.12 1001.04 1000.95 1000.93 1000.73 1000.13 1000.13 999.73 999.98 1000.11 1000.06 999.98 999.49 999.96 1000.26 999.86 999.38 999.01 998.77 998.21 998.93 998.94 998.36 999.45 1001.04 1001.85 1002.20 1002.46 1003.29 1004.60
1014.66 1013.96 1013.30 1012.33 1011.63 1011.34 1009.81 1007.84 1005.37 1004.05 1003.02 1002.81 1002.25 1001.83 1001.11 1000.72 1000.46 1000.39 1000.16 999.78 999.65 999.08 998.26 998.88 999.17 999.57 999.69 999.13 998.91 999.31 998.94 998.21 997.77 997.90 998.18 998.93 998.40 998.29 1000.15 1001.47 1002.22 1002.79 1003.06 1003.47 1004.69
1013.86 1011.80 1011.42 1011.27 1011.51 1011.36 1009.09 1006.16 1004.04 1003.84 1003.64 1002.93 1001.90 1001.27 1000.79 1000.93 1000.60 1000.08 999.62 999.10 999.23 999.21 998.40 998.31 998.24 998.87 999.14 999.17 999.14 998.59 998.57 997.98 997.42 997.80 998.42 997.70 998.13 998.66 999.93 1001.25 1002.34 1002.78 1003.29 1004.16 1005.16
1013.38 1011.22 1010.54 1011.09 1011.16 1010.21 1007.94 1005.40 1004.67 1004.68 1004.14 1003.39 1002.09 1001.77 1000.56 1000.42 1000.32 999.97 999.48 999.10 999.16 999.24 998.81 998.60 998.37 998.80 998.93 999.37 998.91 998.73 998.11 997.95 997.85 997.34 997.41 997.11 997.70 997.85 999.36 1000.62 1002.17 1003.01 1003.86 1004.82 1005.64
1012.73 1010.19 1010.86 1010.97 1010.74 1008.71 1006.36 1005.00 1004.73 1004.76 1004.74 1003.84 1003.03 1002.32 1001.58 1000.85 1000.19 999.44 999.11 999.13 998.99 999.07 999.19 998.72 998.69 998.60 998.91 998.50 997.79 998.64 998.17 997.81 997.05 997.05 996.76 996.71 996.68 996.81 998.70 1000.08 1001.59 1002.86 1004.17 1005.16 1006.02
1011.91 1009.53 1010.79 1010.61 1009.02 1007.15 1005.80 1005.52 1005.77 1004.71 1004.82 1004.23 1003.92 1003.09 1002.33 1001.72 1000.58 999.70 999.02 998.66 999.23 998.63 998.92 999.01 998.54 997.91 997.98 997.73 998.18 997.33 997.28 997.18 997.05 997.20 997.49 996.95 996.82 998.25 998.87 999.96 1001.54 1003.04 1004.25 1005.37 1006.25
1011.52 1010.21 1010.44 1010.01 1007.45 1006.59 1006.21 1005.79 1005.46 1004.89 1004.52 1004.20 1003.66 1003.32 1002.87 1002.04 1001.28 1000.32 999.72 999.49 999.69 999.28 998.78 998.83 998.64 997.75 997.62 997.60 998.21 998.18 997.64 997.17 996.79 996.59 996.19 996.79 996.83 998.63 999.48 1000.20 1001.98 1003.34 1004.55 1005.95 1006.68
1011.98 1009.47 1009.42 1009.04 1008.33 1006.99 1005.97 1005.40 1005.15 1005.37 1004.92 1004.54 1003.79 1003.42 1002.90 1002.02 1001.40 1000.69 999.94 999.69 999.91 999.40 999.46 999.03 998.08 997.50 996.64 996.49 996.95 997.39 997.31 997.06 996.70 996.24 996.10 996.29 996.87 998.43 999.36 1000.35 1002.06 1003.37 1004.96 1006.34 1006.88
1012.27 1010.66 1010.42 1008.17 1007.54 1007.03 1006.64 1006.08 1005.38 1004.92 1005.02 1004.70 1003.80 1003.50 1002.83 1002.08 1001.13 1000.72 1000.27 999.66 999.80 999.98 999.80 999.04 997.96 997.56 997.30 996.79 996.88 996.51 996.52 996.56 996.54 996.23 995.64 995.65 995.81 996.56 998.04 999.83 1001.77 1003.36 1005.14 1006.20 1006.84
1013.27 1012.52 1011.13 1009.38 1008.59 1007.69 1006.85 1005.89 1005.59 1005.12 1005.16 1004.21 1004.19 1003.61 1003.56 1002.80 1001.72 1000.88 1000.75 1000.00 999.21 999.61 999.45 998.94 998.10 997.85 997.35 997.09 996.71 996.37 996.20 995.76 996.05 996.13 995.77 995.84 995.66 996.21 997.57 999.74 1001.58 1003.04 1004.74 1005.80 1006.68
1015.11 1014.32 1013.16 1009.97 1008.50 1007.75 1006.44 1006.37 1005.91 1006.02 1005.35 1005.22 1004.88 1004.65 1003.54 1002.88 1002.87 1002.44 1001.75 1001.02 1000.46 1000.11 999.26 998.71 998.15 997.96 996.99 996.66 996.32 995.83 995.46 995.36 995.49 995.49 995.49 995.22 995.54 996.83 998.13 999.64 1001.35 1002.64 1003.85 1004.99 1006.21
Wind_Speed
16 15 16 16 17 17 17 17 17 18 18 18 18 17 16 16 21 7 3 6 2 13 9 6 6 2 5 3 3 5 5 11 14 13 8 7 5 7 6 12 6 3 12 21 20
16 16 16 17 18 17 17 17 17 18 18 18 18 17 15 15 7 5 7 7 3 12 10 8 5 3 4 2 3 5 7 12 9 8 9 6 4 8 7 10 8 10 16 21 20
16 17 17 17 18 18 18 18 18 18 17 16 17 17 15 15 7 5 9 7 5 11 10 9 6 5 2 4 3 4 8 5 8 11 8 7 7 5 4 6 11 15 21 21 20
17 18 18 19 19 18 19 19 19 18 18 16 16 17 17 6 6 6 9 6 10 13 10 6 6 3 3 1 3 3 6 7 6 8 5 8 5 9 8 5 7 16 21 19 18
17 18 19 19 20 20 19 19 19 18 18 16 15 16 9 7 2 6 7 7 11 10 11 7 6 4 4 2 4 4 6 10 9 8 9 5 7 9 11 10 13 19 19 17 15
18 18 19 19 20 21 20 18 19 18 16 15 12 17 7 6 2 2 7 2 5 10 8 6 4 6 2 4 7 7 8 11 8 7 8 8 8 1 9 12 14 16 16 15 14
19 19 20 20 21 22 22 21 19 18 14 11 9 6 6 3 3 4 8 3 3 8 6 2 4 7 2 4 3 7 8 8 6 6 4 4 7 9 13 13 15 13 12 13 13
19 20 21 22 22 23 23 22 18 13 9 5 6 6 5 2 6 10 5 8 6 6 6 2 4 4 5 3 5 5 5 4 9 7 5 7 8 13 16 14 14 13 11 12 13
19 20 22 23 24 24 24 21 11 4 2 5 7 6 2 3 6 0 5 7 8 5 5 3 7 4 7 9 9 6 1 2 3 10 4 10 4 14 16 14 14 13 14 12 12
19 21 21 23 24 25 24 16 2 6 5 5 3 6 5 4 1 4 5 8 8 9 9 9 8 10 8 10 6 1 2 2 5 4 10 10 10 15 16 15 14 14 14 13 13
19 21 22 23 25 25 15 5 7 8 8 8 3 5 1 4 3 7 5 11 11 15 15 13 12 12 10 3 4 1 3 4 4 4 6 9 11 12 17 16 16 15 15 15 14
19 21 23 25 26 23 9 4 6 6 9 5 8 10 10 5 5 10 8 15 13 16 16 10 16 15 4 5 5 3 4 2 4 3 6 4 7 10 19 19 18 17 15 14 14
19 21 23 25 27 10 6 6 2 8 8 4 4 5 3 10 8 11 14 16 16 18 18 19 17 9 11 10 10 9 8 4 8 8 6 7 10 10 13 16 17 16 16 15 13
20 20 21 28 9 6 1 2 9 5 7 9 7 6 8 5 8 7 14 12 8 17 18 18 8 12 16 14 12 15 7 4 8 11 7 4 5 9 11 16 17 17 16 16 15
20 20 18 12 10 5 6 7 4 6 7 5 8 5 3 10 4 12 8 11 16 10 11 16 14 17 17 16 11 14 5 6 7 12 12 10 8 9 8 10 13 17 18 17 15
20 19 18 5 5 7 7 10 6 9 4 6 4 6 8 12 7 10 13 8 7 11 13 10 2 14 19 19 12 10 8 9 8 7 13 4 4 5 4 7 6 9 18 17 16
22 20 9 5 3 7 9 6 8 9 3 5 1 3 5 10 10 12 16 17 12 15 14 13 12 8 8 14 11 15 15 13 13 10 10 5 5 5 8 5 3 5 13 16 15
26 22 8 6 4 8 6 8 8 4 2 2 3 4 8 9 11 11 16 17 17 17 12 14 16 15 13 14 16 19 20 15 14 10 9 4 7 5 8 7 4 5 8 13 15
28 3 3 3 3 5 7 10 2 0 3 5 4 6 7 8 6 11 14 16 17 15 12 12 17 6 8 14 13 11 14 20 20 6 9 8 5 9 10 6 6 7 9 12 12
6 4 3 6 4 7 8 12 1 2 4 4 4 3 4 7 10 14 13 10 9 13 15 8 10 9 15 11 14 14 11 13 12 14 13 9 6 8 8 9 9 11 11 11 12
5 5 7 4 5 7 9 10 6 5 5 4 2 4 1 1 5 9 11 8 13 17 15 10 12 12 8 14 15 13 13 11 11 14 14 13 11 7 5 9 13 13 12 12 12
5 3 4 4 7 4 9 5 1 3 4 4 6 6 7 5 5 7 9 4 3 12 18 18 11 13 16 10 5 11 20 20 12 14 12 14 7 4 7 10 13 14 14 13 12
3 2 4 5 5 8 3 9 6 5 5 3 4 4 3 5 4 6 4 0 5 11 12 16 11 12 14 14 10 11 13 11 14 15 11 10 13 6 7 12 13 15 15 13 13
5 3 5 4 1 8 4 5 7 5 8 6 7 6 9 10 7 4 4 3 6 11 5 7 15 16 12 15 18 21 18 16 19 14 15 14 17 10 13 14 16 16 16 15 14
2 5 5 3 6 3 5 2 5 6 7 5 6 10 6 7 7 7 6 6 4 5 6 12 16 12 15 10 8 13 19 20 18 17 19 15 14 16 17 17 17 17 17 16 16
6 6 4 4 5 8 5 6 8 4 5 7 9 2 6 10 11 6 5 4 3 6 6 13 11 12 15 18 16 15 18 15 18 16 15 14 16 10 10 15 19 19 19 17 17
4 1 5 2 3 5 5 8 6 2 5 6 5 8 10 8 9 11 11 13 11 8 7 6 11 9 15 18 14 18 19 19 17 16 15 16 16 9 13 18 20 20 19 18 18
Wind_Direction
0 357 354 345 342 341 338 338 334 334 333 330 326 326 321 321 301 217 230 29 337 160 228 162 213 247 211 251 239 275 58 54 50 44 96 128 108 73 92 130 91 77 139 138 145
359 355 351 347 343 339 337 334 333 332 329 329 324 321 318 324 280 230 50 1 252 183 207 235 343 173 210 194 195 295 43 49 26 57 94 123 74 118 136 124 131 113 110 137 152
358 352 347 346 342 335 333 329 330 329 325 326 320 316 315 311 253 99 22 335 212 197 258 280 286 270 270 222 127 52 32 59 51 66 95 102 113 126 157 148 156 150 146 156 160
353 348 344 342 338 334 329 326 326 325 321 323 320 315 314 262 201 88 359 5 171 205 246 260 264 291 326 25 106 129 50 66 90 92 85 68 108 79 58 63 130 153 154 159 167
348 344 341 337 333 329 327 324 321 320 317 320 321 317 293 228 105 110 318 118 157 192 225 248 297 307 30 18 156 69 97 93 111 101 84 97 65 92 89 100 127 142 156 163 170
345 341 338 333 330 328 325 324 318 315 313 315 319 309 264 239 51 165 344 221 200 207 211 232 346 354 49 21 355 98 107 118 132 122 117 111 125 215 108 122 128 149 162 169 177
344 340 337 332 328 327 325 323 318 306 302 302 303 301 264 305 337 303 300 272 229 243 235 221 304 288 319 142 107 144 121 124 148 161 144 159 143 109 135 141 142 161 174 175 182
341 338 335 332 329 327 325 322 314 298 286 263 263 266 273 77 330 279 257 246 232 242 261 308 262 291 309 150 162 202 233 246 147 195 161 233 111 144 151 157 155 167 176 187 188
339 337 333 330 328 326 324 320 312 290 127 178 232 275 181 147 215 214 263 239 185 195 199 200 234 285 197 231 193 205 107 34 151 210 167 228 82 155 167 170 165 177 175 186 183
337 334 331 329 327 325 321 304 177 176 198 224 265 246 213 144 314 303 238 246 197 174 175 214 226 234 213 232 237 176 167 128 334 96 220 215 251 150 180 184 180 185 181 185 191
336 332 329 328 325 325 319 214 215 182 204 292 14 321 168 339 210 199 193 200 210 202 207 204 222 219 221 25 18 284 284 314 18 47 277 237 241 185 185 195 191 194 193 186 194
335 331 328 327 324 317 276 10 54 4 296 229 259 265 266 293 258 206 195 201 200 207 213 183 225 226 140 202 241 236 277 286 245 357 257 270 252 202 182 204 198 193 197 196 190
334 331 329 326 320 293 357 64 45 315 255 172 215 251 182 202 221 181 199 212 207 215 202 224 218 163 195 208 233 226 268 352 334 311 220 278 225 168 198 201 204 202 198 197 197
330 329 333 327 292 349 163 32 314 236 263 133 174 139 170 221 221 188 215 201 206 218 215 232 166 197 212 221 234 255 157 287 302 302 332 318 306 149 174 201 205 204 199 193 192
329 329 331 327 320 272 21 326 312 231 243 103 125 96 175 220 98 178 185 208 209 198 198 207 207 208 218 225 210 268 132 266 297 289 307 191 266 116 156 203 202 207 199 198 180
324 326 327 206 232 283 311 310 233 229 202 135 140 173 181 202 179 143 182 229 236 203 222 256 228 225 232 235 226 251 207 230 243 286 262 158 282 299 73 84 120 199 203 199 179
321 317 295 304 356 330 302 235 230 251 119 135 114 210 233 178 178 177 183 189 183 195 201 200 196 186 227 217 199 220 235 235 225 203 249 110 237 312 92 98 134 157 190 194 180
321 313 156 248 275 310 253 226 245 47 282 94 286 249 218 173 211 187 188 200 215 225 214 198 201 199 188 226 205 214 230 238 241 239 274 125 247 106 91 102 123 182 202 178 175
311 200 227 139 261 232 242 221 258 174 359 334 262 226 165 181 244 204 197 205 197 219 237 204 232 165 220 213 232 210 239 245 261 168 266 267 164 236 172 141 134 126 154 159 173
306 278 84 333 224 220 233 249 253 305 317 308 301 330 214 167 205 201 183 196 196 211 245 183 229 183 188 220 223 266 261 206 230 249 226 222 229 272 165 167 150 149 153 159 153
246 238 36 98 223 220 227 227 242 211 279 303 310 299 311 248 278 197 175 174 211 189 217 232 243 158 186 201 198 199 226 237 262 223 248 239 215 138 144 181 168 153 151 153 158
290 218 122 286 215 219 233 231 3 230 179 266 286 286 282 300 258 220 213 249 225 224 200 215 215 232 204 204 348 233 214 221 225 206 249 286 290 98 141 166 157 154 151 150 149
338 41 162 277 244 210 176 238 263 247 237 226 258 241 299 276 277 234 204 5 208 199 212 193 221 218 219 214 207 240 236 250 251 249 244 235 239 136 155 155 157 156 149 139 148
278 201 151 228 259 288 217 212 218 194 266 259 276 254 264 256 219 270 227 167 189 229 21 218 233 227 223 221 210 211 227 224 242 234 235 236 258 173 180 171 170 165 151 153 152
337 52 7 184 193 255 253 347 232 236 217 234 231 245 272 265 236 228 233 240 161 129 214 234 230 228 239 265 227 247 214 216 232 244 253 248 237 245 184 179 177 162 154 157 151
337 336 332 290 267 241 189 221 264 241 259 221 249 114 273 263 291 329 334 273 43 171 179 226 241 244 231 230 231 235 239 221 219 238 248 257 264 300 138 158 172 166 162 162 158
14 278 283 139 247 261 253 255 270 299 244 279 311 314 270 286 334 307 295 285 278 289 298 219 233 214 231 228 226 235 234 226 227 221 233 234 235 151 172 172 173 167 168 163 159